Total_Precipitation_Accumulation
1.92 2.34 2.66 3.21 3.81 4.20 4.59 4.74 4.76 4.68 4.51 4.14 3.83 3.59 3.35 3.14 2.89 2.71 2.63 2.52 2.42 2.60 3.03 2.87 3.11 3.07 3.06 3.09 3.15 3.28 3.21 2.93 3.11 3.19 2.76 2.23 1.80 1.77 1.54 1.46 1.50 1.54 1.53
1.82 2.34 2.65 2.87 3.33 3.84 4.30 4.60 4.75 4.65 4.27 3.90 3.71 3.58 3.52 3.13 2.83 2.81 2.93 2.76 2.75 2.79 2.82 2.99 2.97 3.03 3.13 3.08 3.08 3.21 3.04 2.70 2.97 3.30 3.35 2.70 2.30 1.87 1.41 1.49 1.58 1.69 1.77
2.09 2.34 2.54 2.70 2.99 3.38 3.69 3.81 3.97 3.94 3.79 3.82 3.83 3.76 3.74 3.31 3.20 3.20 3.20 2.98 2.99 2.99 2.99 2.96 2.90 2.89 2.71 2.76 2.83 2.87 2.89 2.82 2.77 3.09 3.41 2.98 2.50 2.18 1.66 1.53 1.53 1.71 1.96
1.72 1.88 2.19 2.51 2.69 2.92 3.27 3.51 3.56 3.52 3.43 3.54 3.59 3.48 3.27 3.12 3.25 3.53 3.49 3.22 3.00 2.84 2.64 2.57 2.73 2.74 2.55 2.56 2.26 2.40 2.60 2.61 2.47 2.73 2.81 2.85 2.85 2.75 2.10 1.66 1.48 1.60 1.80
1.48 1.58 1.78 2.11 2.22 2.53 2.82 3.07 3.34 3.44 3.38 3.44 3.38 3.40 3.26 3.27 3.32 3.29 3.30 3.11 2.90 2.57 2.24 2.26 2.42 2.40 2.34 2.24 2.14 2.31 2.21 2.16 2.21 2.41 2.62 2.70 2.77 2.67 2.51 2.09 1.98 1.90 1.77
1.33 1.51 1.67 1.90 2.03 2.18 2.31 2.44 2.66 2.94 3.11 3.16 3.14 3.17 3.13 3.12 3.04 2.95 2.83 2.64 2.49 2.22 1.97 1.89 2.04 2.16 2.18 2.13 2.11 2.20 2.10 2.12 2.26 2.26 2.33 2.56 2.57 2.54 2.70 2.32 2.14 2.08 1.81
1.05 1.28 1.42 1.55 1.70 1.84 1.93 2.02 2.21 2.54 2.70 2.70 2.68 2.80 2.86 2.88 2.80 2.76 2.60 2.40 2.17 1.89 1.84 1.88 1.96 2.01 2.07 1.93 2.01 2.07 2.11 2.24 2.31 2.25 2.19 2.33 2.38 2.49 2.70 2.64 2.38 2.24 2.02
0.82 0.99 1.22 1.48 1.62 1.57 1.65 1.77 2.00 2.24 2.34 2.27 2.41 2.62 2.69 2.78 2.67 2.70 2.45 2.21 2.01 1.90 1.96 1.94 1.82 1.77 1.87 1.77 2.03 1.98 2.02 2.21 2.26 2.06 2.28 2.34 2.38 2.64 2.83 2.92 2.99 2.71 2.43
0.81 0.88 0.98 1.16 1.23 1.25 1.35 1.50 1.86 2.16 2.28 2.31 2.45 2.54 2.60 2.60 2.51 2.40 2.23 2.03 2.04 1.98 2.09 2.04 1.93 1.82 1.90 2.02 2.29 2.23 2.20 2.40 2.36 2.31 2.49 2.47 2.45 2.62 2.73 2.91 3.10 3.17 2.84
0.62 0.70 0.74 0.84 0.96 1.15 1.41 1.57 1.71 2.01 2.15 2.20 2.31 2.36 2.54 2.47 2.31 2.21 2.03 1.88 1.80 1.83 2.00 2.13 2.06 1.98 2.01 2.16 2.35 2.36 2.51 2.65 2.60 2.63 2.74 2.70 2.57 2.69 2.77 2.79 3.00 3.26 3.18
0.50 0.57 0.72 0.86 1.00 1.15 1.34 1.41 1.45 1.61 1.77 1.88 2.07 2.06 2.08 2.16 2.22 2.08 1.84 1.75 1.75 1.80 1.86 2.06 2.13 2.09 2.12 2.21 2.25 2.23 2.53 2.64 2.63 2.60 2.61 2.60 2.71 2.74 2.68 2.77 2.91 3.15 3.20
0.59 0.62 0.81 0.98 1.08 1.21 1.23 1.22 1.27 1.41 1.57 1.75 1.94 2.02 2.03 2.09 2.11 1.99 1.81 1.77 1.79 1.85 1.90 2.02 2.04 1.95 1.94 2.12 2.16 2.23 2.49 2.62 2.52 2.50 2.51 2.32 2.38 2.44 2.33 2.47 2.53 2.65 2.85
0.70 0.77 0.87 0.91 0.94 1.02 1.12 1.10 1.09 1.24 1.41 1.63 1.97 2.14 2.17 2.12 2.06 1.91 1.71 1.65 1.66 1.77 1.82 1.84 1.86 1.90 1.99 2.08 2.09 2.10 2.12 2.14 2.23 2.46 2.57 2.37 2.35 2.26 2.24 2.25 2.23 2.31 2.42
0.74 0.85 0.86 0.94 0.91 0.88 0.96 0.95 1.00 1.10 1.33 1.53 1.74 1.85 1.77 1.73 1.77 1.70 1.57 1.51 1.54 1.61 1.70 1.78 1.86 1.92 1.96 1.99 2.05 2.09 2.04 2.03 2.09 2.22 2.29 2.26 2.22 2.18 2.26 2.16 2.13 2.19 2.32
0.67 0.75 0.75 0.79 0.82 0.83 0.92 0.87 0.88 0.93 1.07 1.26 1.37 1.50 1.51 1.48 1.48 1.53 1.57 1.59 1.67 1.67 1.74 1.81 1.83 1.83 1.82 1.72 1.75 1.83 1.85 1.98 1.94 1.86 1.87 1.89 1.93 1.93 1.95 1.81 1.95 2.14 2.25
0.48 0.46 0.64 0.74 0.70 0.70 0.74 0.69 0.75 0.88 1.02 1.12 1.21 1.41 1.56 1.60 1.59 1.62 1.71 1.75 1.74 1.74 1.78 1.75 1.80 1.80 1.56 1.71 1.72 1.72 1.82 1.90 1.89 1.80 1.70 1.61 1.60 1.55 1.56 1.53 1.61 1.85 2.03
0.46 0.41 0.50 0.67 0.67 0.68 0.68 0.75 0.87 1.00 1.10 1.25 1.37 1.55 1.66 1.76 1.77 1.73 1.83 1.80 1.80 1.85 1.81 1.74 1.73 1.78 1.84 1.89 1.72 1.57 1.55 1.65 1.70 1.68 1.66 1.47 1.38 1.53 1.50 1.54 1.51 1.53 1.66
0.46 0.46 0.47 0.50 0.56 0.63 0.68 0.82 1.10 1.35 1.39 1.52 1.69 1.78 1.87 1.84 1.82 1.83 1.85 1.92 2.01 2.04 2.00 1.93 1.86 1.87 1.85 1.81 1.59 1.59 1.55 1.61 1.63 1.64 1.67 1.66 1.57 1.59 1.70 1.67 1.60 1.50 1.45
0.47 0.50 0.55 0.58 0.66 0.72 0.75 0.94 1.18 1.47 1.63 1.65 1.74 1.90 1.99 2.03 2.05 2.08 2.04 2.10 2.21 2.17 2.07 2.03 2.06 2.00 2.01 2.06 1.87 1.88 1.76 1.79 1.81 1.84 1.82 1.77 1.66 1.76 1.69 1.63 1.62 1.56 1.54
0.59 0.61 0.64 0.76 0.93 1.00 1.02 1.14 1.26 1.40 1.58 1.65 1.76 1.94 2.18 2.23 2.26 2.40 2.47 2.39 2.35 2.21 2.22 2.22 2.20 2.20 2.24 2.46 2.27 2.08 1.94 1.97 1.97 2.04 2.02 2.03 1.84 1.80 1.70 1.58 1.61 1.62 1.63
0.70 0.69 0.72 0.88 1.10 1.23 1.26 1.36 1.49 1.58 1.59 1.68 1.81 2.02 2.21 2.30 2.37 2.52 2.59 2.54 2.49 2.46 2.40 2.34 2.38 2.37 2.37 2.53 2.30 2.10 1.98 2.05 2.18 2.17 2.07 2.10 2.07 1.86 1.84 1.76 1.69 1.67 1.63
0.81 0.84 0.89 1.03 1.23 1.40 1.37 1.43 1.50 1.55 1.61 1.62 1.73 1.87 2.03 2.07 2.16 2.41 2.49 2.55 2.58 2.52 2.43 2.37 2.25 2.28 2.28 2.23 2.12 2.03 1.97 2.06 2.17 2.23 2.14 2.11 2.07 1.83 1.72 1.57 1.53 1.52 1.41
0.84 0.91 0.97 1.14 1.37 1.53 1.55 1.62 1.52 1.60 1.64 1.67 1.80 1.94 2.01 2.07 2.17 2.27 2.30 2.37 2.45 2.40 2.30 2.31 2.25 2.19 2.21 2.20 1.97 1.76 1.74 1.78 1.81 1.95 2.06 1.98 1.86 1.64 1.42 1.34 1.30 1.19 1.07
0.78 0.84 0.95 1.02 1.11 1.31 1.49 1.59 1.66 1.71 1.73 1.74 1.78 1.87 1.98 1.98 2.03 2.16 2.25 2.35 2.45 2.52 2.42 2.31 2.22 2.20 2.16 2.03 1.84 1.66 1.60 1.70 1.81 1.90 1.95 1.81 1.68 1.47 1.32 1.22 1.12 1.05 1.07
0.81 0.83 0.92 0.94 1.00 1.09 1.22 1.31 1.44 1.57 1.63 1.68 1.72 1.73 1.76 1.85 1.94 1.98 2.06 2.06 2.16 2.20 2.19 2.13 2.10 2.10 2.04 1.88 1.80 1.65 1.54 1.64 1.81 1.89 1.91 1.76 1.68 1.58 1.45 1.34 1.26 1.22 1.22
0.88 0.90 0.91 0.89 0.93 0.99 1.15 1.26 1.37 1.52 1.64 1.71 1.74 1.66 1.61 1.68 1.73 1.78 1.76 1.76 1.71 1.73 1.71 1.72 1.73 1.69 1.62 1.49 1.37 1.37 1.40 1.46 1.61 1.65 1.75 1.80 1.74 1.67 1.56 1.43 1.32 1.25 1.21